Location: Overspoor
(51.4747°N, 5.6641°E)
Time: 04:14:17
(UTC+02:00)

DUCHIFAT 1 - Pass Details

Date: 04 July 2022
Orbit: 580 x 596 km, 98.0° (Epoch: 09 August)

Event Time Altitude Azimuth Distance (km) Brightness Sun altitude
Rises 03:09:41 0° 27° (NNE) 2,848 ? -13.2°
Reaches altitude 10° 03:12:30 10° 47° (NE) 1,942 ? -13.0°
Maximum altitude 03:15:21 18° 90° (E) 1,507 ? -12.8°
Drops below altitude 10° 03:18:12 10° 133° (SE) 1,935 ? -12.7°
Enters shadow 03:20:01 - 148° (SSE) 2,493 ? -12.6°
